Time,TemperatureF,DewpointF,PressureIn,WindDirection,WindDirectionDegrees,WindSpeedMPH,WindSpeedGustMPH,Humidity,HourlyPrecipIn,Conditions,Clouds,dailyrainin,SoftwareType,DateUTC
2013-04-07 00:02:00,68.2,25.6,29.96,NE,44,5.4,5.8,20,0.00,,---,0.00,VWS V14.00,2013-04-07 07:02:00,
2013-04-07 00:07:00,68.2,25.6,29.96,ENE,64,3.1,5.8,20,0.00,,---,0.00,VWS V14.00,2013-04-07 07:07:00,
2013-04-07 00:12:00,68.0,25.5,29.96,NE,52,0.0,5.8,20,0.00,,---,0.00,VWS V14.00,2013-04-07 07:12:00,
2013-04-07 00:17:00,67.8,25.3,29.96,NE,53,2.2,2.7,20,0.00,,---,0.00,VWS V14.00,2013-04-07 07:17:00,
2013-04-07 00:22:00,67.5,25.0,29.96,NE,52,0.0,2.7,20,0.00,,---,0.00,VWS V14.00,2013-04-07 07:22:00,
2013-04-07 00:27:00,67.1,24.7,29.96,NE,53,0.0,2.7,20,0.00,,---,0.00,VWS V14.00,2013-04-07 07:27:00,
2013-04-07 00:33:00,66.6,24.3,29.96,NE,53,0.0,0.0,20,0.00,,---,0.00,VWS V14.00,2013-04-07 07:33:00,
2013-04-07 00:38:00,65.8,23.7,29.96,NE,53,0.0,0.0,20,0.00,,---,0.00,VWS V14.00,2013-04-07 07:38:00,
2013-04-07 00:43:00,65.5,23.4,29.96,NE,52,0.0,0.0,20,0.00,,---,0.00,VWS V14.00,2013-04-07 07:43:00,
2013-04-07 00:48:00,64.9,22.9,29.96,NE,53,0.0,0.0,20,0.00,,---,0.00,VWS V14.00,2013-04-07 07:48:00,
2013-04-07 00:53:00,64.4,22.5,29.96,NE,53,0.0,0.0,20,0.00,,---,0.00,VWS V14.00,2013-04-07 07:53:00,
2013-04-07 00:58:00,63.9,25.4,29.96,NE,53,0.0,2.7,23,0.00,,---,0.00,VWS V14.00,2013-04-07 07:58:00,
2013-04-07 01:03:00,63.5,25.1,29.96,NE,52,0.0,0.0,23,0.00,,---,0.00,VWS V14.00,2013-04-07 08:03:00,
2013-04-07 01:08:00,63.1,24.8,29.96,NE,52,0.0,0.0,23,0.00,,---,0.00,VWS V14.00,2013-04-07 08:08:00,
2013-04-07 01:13:00,62.8,24.5,29.96,NE,52,0.0,0.0,23,0.00,,---,0.00,VWS V14.00,2013-04-07 08:13:00,
2013-04-07 01:18:00,62.6,24.3,29.96,NE,53,0.0,0.0,23,0.00,,---,0.00,VWS V14.00,2013-04-07 08:18:00,
2013-04-07 01:23:00,62.4,25.2,29.93,NE,53,0.0,0.0,24,0.00,,---,0.00,VWS V14.00,2013-04-07 08:23:00,
2013-04-07 01:28:00,62.4,25.2,29.93,NE,52,0.0,0.0,24,0.00,,---,0.00,VWS V14.00,2013-04-07 08:28:00,
2013-04-07 01:33:00,62.2,25.0,29.93,NE,52,0.0,0.0,24,0.00,,---,0.00,VWS V14.00,2013-04-07 08:33:00,
2013-04-07 01:38:00,62.2,25.0,29.93,NE,53,0.0,0.0,24,0.00,,---,0.00,VWS V14.00,2013-04-07 08:38:00,
2013-04-07 01:43:00,61.9,24.7,29.93,NE,52,0.0,0.0,24,0.00,,---,0.00,VWS V14.00,2013-04-07 08:43:00,
2013-04-07 01:48:00,61.7,24.6,29.93,NE,52,0.0,0.0,24,0.00,,---,0.00,VWS V14.00,2013-04-07 08:48:00,
2013-04-07 01:53:00,61.5,24.4,29.93,East,95,0.0,3.1,24,0.00,,---,0.00,VWS V14.00,2013-04-07 08:53:00,
2013-04-07 01:58:00,61.5,24.4,29.93,East,95,0.0,3.1,24,0.00,,---,0.00,VWS V14.00,2013-04-07 08:58:00,
2013-04-07 02:03:00,61.5,24.4,29.93,East,94,0.0,3.1,24,0.00,,---,0.00,VWS V14.00,2013-04-07 09:03:00,
2013-04-07 02:08:00,61.5,24.4,29.93,East,94,0.0,3.1,24,0.00,,---,0.00,VWS V14.00,2013-04-07 09:08:00,
2013-04-07 02:13:00,61.5,24.4,29.93,East,97,2.7,3.1,24,0.00,,---,0.00,VWS V14.00,2013-04-07 09:13:00,
2013-04-07 02:18:00,61.3,24.3,29.93,East,97,0.0,2.7,24,0.00,,---,0.00,VWS V14.00,2013-04-07 09:18:00,
2013-04-07 02:23:00,61.2,24.1,29.93,East,97,0.0,2.7,24,0.00,,---,0.00,VWS V14.00,2013-04-07 09:23:00,
2013-04-07 02:28:00,60.8,23.8,29.93,East,99,0.0,0.0,24,0.00,,---,0.00,VWS V14.00,2013-04-07 09:28:00,
2013-04-07 02:33:00,60.6,24.6,29.93,SE,140,3.1,4.0,25,0.00,,---,0.00,VWS V14.00,2013-04-07 09:33:00,
2013-04-07 02:38:00,60.6,24.6,29.93,ESE,120,4.0,4.9,25,0.00,,---,0.00,VWS V14.00,2013-04-07 09:38:00,
2013-04-07 02:43:00,60.6,24.6,29.93,ESE,119,3.1,3.1,25,0.00,,---,0.00,VWS V14.00,2013-04-07 09:43:00,
2013-04-07 02:48:00,60.6,24.6,29.93,ESE,120,4.0,4.0,25,0.00,,---,0.00,VWS V14.00,2013-04-07 09:48:00,
2013-04-07 02:53:00,60.6,24.6,29.93,ESE,122,4.0,4.0,25,0.00,,---,0.00,VWS V14.00,2013-04-07 09:53:00,
2013-04-07 02:58:00,60.8,24.8,29.93,SE,124,3.6,3.6,25,0.00,,---,0.00,VWS V14.00,2013-04-07 09:58:00,
2013-04-07 03:03:00,60.8,24.8,29.93,SE,127,3.6,4.0,25,0.00,,---,0.00,VWS V14.00,2013-04-07 10:03:00,
2013-04-07 03:08:00,61.0,24.9,29.90,SE,128,2.2,4.9,25,0.00,,---,0.00,VWS V14.00,2013-04-07 10:08:00,
2013-04-07 03:13:00,61.2,25.1,29.90,SE,125,4.0,4.0,25,0.00,,---,0.00,VWS V14.00,2013-04-07 10:13:00,
2013-04-07 03:18:00,61.3,25.2,29.90,SE,127,2.7,4.0,25,0.00,,---,0.00,VWS V14.00,2013-04-07 10:18:00,
2013-04-07 03:23:00,61.3,25.2,29.93,SE,129,3.6,4.0,25,0.00,,---,0.00,VWS V14.00,2013-04-07 10:23:00,
2013-04-07 03:28:00,61.5,25.4,29.93,SE,130,3.1,3.1,25,0.00,,---,0.00,VWS V14.00,2013-04-07 10:28:00,
2013-04-07 03:33:00,61.9,25.7,29.93,SE,136,0.0,4.0,25,0.00,,---,0.00,VWS V14.00,2013-04-07 10:33:00,
2013-04-07 03:38:00,62.1,25.9,29.90,SE,138,0.0,4.0,25,0.00,,---,0.00,VWS V14.00,2013-04-07 10:38:00,
2013-04-07 03:44:00,62.1,25.9,29.90,SE,138,0.0,0.0,25,0.00,,---,0.00,VWS V14.00,2013-04-07 10:44:00,
2013-04-07 03:49:00,62.1,25.9,29.90,SE,141,2.7,4.0,25,0.00,,---,0.00,VWS V14.00,2013-04-07 10:49:00,
2013-04-07 03:54:00,62.2,26.0,29.90,SE,133,4.0,5.4,25,0.00,,---,0.00,VWS V14.00,2013-04-07 10:54:00,
2013-04-07 03:59:00,62.4,26.2,29.90,ESE,120,3.6,4.9,25,0.00,,---,0.00,VWS V14.00,2013-04-07 10:59:00,
2013-04-07 04:04:00,62.6,26.3,29.90,ESE,123,4.0,5.4,25,0.00,,---,0.00,VWS V14.00,2013-04-07 11:04:00,
2013-04-07 04:09:00,62.6,26.3,29.90,ESE,114,3.1,5.4,25,0.00,,---,0.00,VWS V14.00,2013-04-07 11:09:00,
2013-04-07 04:14:00,62.6,26.3,29.90,ESE,112,2.2,2.7,25,0.00,,---,0.00,VWS V14.00,2013-04-07 11:14:00,
2013-04-07 04:19:00,62.4,26.2,29.90,ESE,111,0.0,2.7,25,0.00,,---,0.00,VWS V14.00,2013-04-07 11:19:00,
2013-04-07 04:24:00,62.2,26.0,29.90,ESE,111,0.0,2.7,25,0.00,,---,0.00,VWS V14.00,2013-04-07 11:24:00,
2013-04-07 04:30:00,61.5,25.4,29.90,SSE,166,0.0,2.7,25,0.00,,---,0.00,VWS V14.00,2013-04-07 11:30:00,
2013-04-07 04:35:00,61.2,25.1,29.90,SSE,166,0.0,2.7,25,0.00,,---,0.00,VWS V14.00,2013-04-07 11:35:00,
2013-04-07 04:40:00,60.8,24.8,29.90,SSE,166,0.0,2.7,25,0.00,,---,0.00,VWS V14.00,2013-04-07 11:40:00,
2013-04-07 04:45:00,60.4,24.5,29.90,SSE,166,0.0,0.0,25,0.00,,---,0.00,VWS V14.00,2013-04-07 11:45:00,
2013-04-07 04:50:00,59.9,24.0,29.90,SSE,166,0.0,0.0,25,0.00,,---,0.00,VWS V14.00,2013-04-07 11:50:00,
2013-04-07 04:55:00,59.5,24.6,29.93,SSE,166,0.0,0.0,26,0.00,,---,0.00,VWS V14.00,2013-04-07 11:55:00,
2013-04-07 05:00:00,59.0,24.2,29.93,SSE,166,0.0,0.0,26,0.00,,---,0.00,VWS V14.00,2013-04-07 12:00:00,
2013-04-07 05:06:00,58.5,23.7,29.93,SSE,166,0.0,3.6,26,0.00,,---,0.00,VWS V14.00,2013-04-07 12:06:00,
2013-04-07 05:11:00,58.1,24.3,29.93,SSE,159,0.0,3.6,27,0.00,,---,0.00,VWS V14.00,2013-04-07 12:11:00,
2013-04-07 05:16:00,57.9,24.2,29.93,WNW,286,0.0,0.0,27,0.00,,---,0.00,VWS V14.00,2013-04-07 12:16:00,
2013-04-07 05:21:00,57.6,23.9,29.93,WNW,286,0.0,0.0,27,0.00,,---,0.00,VWS V14.00,2013-04-07 12:21:00,
2013-04-07 05:26:00,57.4,23.7,29.93,WNW,286,0.0,0.0,27,0.00,,---,0.00,VWS V14.00,2013-04-07 12:26:00,
2013-04-07 05:31:00,56.8,24.1,29.93,WNW,286,0.0,0.0,28,0.00,,---,0.00,VWS V14.00,2013-04-07 12:31:00,
2013-04-07 05:36:00,56.7,24.0,29.93,WNW,286,0.0,0.0,28,0.00,,---,0.00,VWS V14.00,2013-04-07 12:36:00,
2013-04-07 05:41:00,56.3,24.5,29.93,WNW,286,0.0,0.0,29,0.00,,---,0.00,VWS V14.00,2013-04-07 12:41:00,
2013-04-07 05:46:00,55.9,24.2,29.93,WNW,286,0.0,0.0,29,0.00,,---,0.00,VWS V14.00,2013-04-07 12:46:00,
2013-04-07 05:51:00,55.8,24.0,29.93,WNW,286,0.0,0.0,29,0.00,,---,0.00,VWS V14.00,2013-04-07 12:51:00,
2013-04-07 05:56:00,55.4,24.5,29.93,WNW,285,0.0,0.0,30,0.00,,---,0.00,VWS V14.00,2013-04-07 12:56:00,
2013-04-07 06:01:00,55.2,25.1,29.93,WNW,286,0.0,0.0,31,0.00,,---,0.00,VWS V14.00,2013-04-07 13:01:00,
2013-04-07 06:06:00,54.9,24.8,29.93,WNW,286,0.0,0.0,31,0.00,,---,0.00,VWS V14.00,2013-04-07 13:06:00,
2013-04-07 06:12:00,54.7,25.4,29.93,WNW,285,0.0,0.0,32,0.00,,---,0.00,VWS V14.00,2013-04-07 13:12:00,
2013-04-07 06:17:00,54.3,25.9,29.93,WNW,285,0.0,0.0,33,0.00,,---,0.00,VWS V14.00,2013-04-07 13:17:00,
2013-04-07 06:22:00,54.1,26.4,29.93,WNW,286,0.0,0.0,34,0.00,,---,0.00,VWS V14.00,2013-04-07 13:22:00,
2013-04-07 06:27:00,54.0,27.0,29.93,WNW,285,0.0,0.0,35,0.00,,---,0.00,VWS V14.00,2013-04-07 13:27:00,
2013-04-07 06:32:00,54.1,27.8,29.93,WNW,286,0.0,0.0,36,0.00,,---,0.00,VWS V14.00,2013-04-07 13:32:00,
2013-04-07 06:37:00,54.3,28.0,29.96,WNW,286,0.0,0.0,36,0.00,,---,0.00,VWS V14.00,2013-04-07 13:37:00,
2013-04-07 06:42:00,54.9,28.4,29.96,NW,316,0.0,0.0,36,0.00,,---,0.00,VWS V14.00,2013-04-07 13:42:00,
2013-04-07 06:48:00,55.4,28.9,29.96,ESE,120,2.7,3.1,36,0.00,,---,0.00,VWS V14.00,2013-04-07 13:48:00,
2013-04-07 06:53:00,55.9,29.4,29.96,ESE,117,2.7,3.1,36,0.00,,---,0.00,VWS V14.00,2013-04-07 13:53:00,
2013-04-07 06:59:00,56.7,30.0,29.96,ESE,109,2.2,2.7,36,0.00,,---,0.00,VWS V14.00,2013-04-07 13:59:00,
2013-04-07 07:04:00,57.6,30.8,29.96,ESE,112,2.7,3.6,36,0.00,,---,0.00,VWS V14.00,2013-04-07 14:04:00,
2013-04-07 07:09:00,58.3,31.5,29.96,ESE,122,0.0,4.0,36,0.00,,---,0.00,VWS V14.00,2013-04-07 14:09:00,
2013-04-07 07:14:00,59.2,31.6,29.96,SE,129,0.0,4.0,35,0.00,,---,0.00,VWS V14.00,2013-04-07 14:14:00,
2013-04-07 07:20:00,59.9,32.2,29.96,SE,129,0.0,4.0,35,0.00,,---,0.00,VWS V14.00,2013-04-07 14:20:00,
2013-04-07 07:25:00,60.6,32.1,29.96,SE,146,0.0,4.0,34,0.00,,---,0.00,VWS V14.00,2013-04-07 14:25:00,
2013-04-07 07:30:00,61.3,32.8,29.96,SSE,167,2.7,2.7,34,0.00,,---,0.00,VWS V14.00,2013-04-07 14:30:00,
2013-04-07 07:35:00,61.9,33.2,29.96,SSE,167,0.0,3.6,34,0.00,,---,0.00,VWS V14.00,2013-04-07 14:35:00,
2013-04-07 07:40:00,62.4,33.0,29.96,SSW,200,0.0,4.0,33,0.00,,---,0.00,VWS V14.00,2013-04-07 14:40:00,
2013-04-07 07:45:00,63.0,32.7,29.96,SSW,200,0.0,2.2,32,0.00,,---,0.00,VWS V14.00,2013-04-07 14:45:00,
2013-04-07 07:50:00,63.3,32.2,29.96,SSW,198,0.0,3.1,31,0.00,,---,0.00,VWS V14.00,2013-04-07 14:50:00,
2013-04-07 07:55:00,63.7,32.5,29.96,SSW,196,0.0,3.1,31,0.00,,---,0.00,VWS V14.00,2013-04-07 14:55:00,
2013-04-07 08:00:00,64.2,32.2,29.96,South,185,3.1,3.6,30,0.00,,---,0.00,VWS V14.00,2013-04-07 15:00:00,
2013-04-07 08:05:00,64.8,31.8,29.96,SSW,213,0.0,4.9,29,0.00,,---,0.00,VWS V14.00,2013-04-07 15:05:00,
2013-04-07 08:10:00,65.3,32.3,29.96,SSW,203,0.0,5.4,29,0.00,,---,0.00,VWS V14.00,2013-04-07 15:10:00,
2013-04-07 08:15:00,65.7,31.7,29.96,South,191,4.5,4.5,28,0.00,,---,0.00,VWS V14.00,2013-04-07 15:15:00,
2013-04-07 08:20:00,66.2,32.2,29.96,SW,221,3.6,5.8,28,0.00,,---,0.00,VWS V14.00,2013-04-07 15:20:00,
2013-04-07 08:25:00,66.7,31.7,29.96,SSW,194,0.0,5.8,27,0.00,,---,0.00,VWS V14.00,2013-04-07 15:25:00,
2013-04-07 08:30:00,67.3,32.2,29.96,South,188,2.2,4.0,27,0.00,,---,0.00,VWS V14.00,2013-04-07 15:30:00,
2013-04-07 08:35:00,67.8,32.7,29.96,WSW,239,2.7,4.5,27,0.00,,---,0.00,VWS V14.00,2013-04-07 15:35:00,
2013-04-07 08:41:00,68.4,32.2,29.96,WSW,246,0.0,4.5,26,0.00,,---,0.00,VWS V14.00,2013-04-07 15:41:00,
2013-04-07 08:46:00,68.7,32.5,29.96,SSW,207,0.0,3.6,26,0.00,,---,0.00,VWS V14.00,2013-04-07 15:46:00,
2013-04-07 08:51:00,69.3,32.0,29.96,SSW,208,2.2,5.4,25,0.00,,---,0.00,VWS V14.00,2013-04-07 15:51:00,
2013-04-07 08:57:00,69.8,32.4,29.96,SSW,202,2.7,5.4,25,0.00,,---,0.00,VWS V14.00,2013-04-07 15:57:00,
2013-04-07 09:02:00,70.5,32.0,29.96,SSW,205,2.2,4.0,24,0.00,,---,0.00,VWS V14.00,2013-04-07 16:02:00,
2013-04-07 09:07:00,71.1,32.5,29.96,SSW,204,0.0,4.0,24,0.00,,---,0.00,VWS V14.00,2013-04-07 16:07:00,
2013-04-07 09:12:00,71.6,32.9,29.96,SSW,207,0.0,4.9,24,0.00,,---,0.00,VWS V14.00,2013-04-07 16:12:00,
2013-04-07 09:17:00,72.1,32.3,29.96,SSW,200,3.1,5.4,23,0.00,,---,0.00,VWS V14.00,2013-04-07 16:17:00,
2013-04-07 09:22:00,72.7,32.8,29.96,SSW,198,3.6,5.4,23,0.00,,---,0.00,VWS V14.00,2013-04-07 16:22:00,
2013-04-07 09:27:00,73.0,33.1,29.96,SSW,196,3.6,5.8,23,0.00,,---,0.00,VWS V14.00,2013-04-07 16:27:00,
2013-04-07 09:32:00,73.6,32.4,29.96,SW,216,3.6,5.8,22,0.00,,---,0.00,VWS V14.00,2013-04-07 16:32:00,
2013-04-07 09:37:00,74.1,32.9,29.96,SSW,201,3.6,5.8,22,0.00,,---,0.00,VWS V14.00,2013-04-07 16:37:00,
2013-04-07 09:42:00,74.5,33.2,29.96,WSW,240,3.6,6.3,22,0.00,,---,0.00,VWS V14.00,2013-04-07 16:42:00,
2013-04-07 09:47:00,75.0,33.6,29.96,SSW,192,2.2,5.8,22,0.00,,---,0.00,VWS V14.00,2013-04-07 16:47:00,
2013-04-07 09:52:00,75.6,32.9,29.96,SSW,193,3.6,8.7,21,0.00,,---,0.00,VWS V14.00,2013-04-07 16:52:00,
2013-04-07 09:57:00,76.3,33.5,29.96,WSW,237,4.0,8.7,21,0.00,,---,0.00,VWS V14.00,2013-04-07 16:57:00,
2013-04-07 10:03:00,76.8,34.0,29.96,South,181,3.1,6.3,21,0.00,,---,0.00,VWS V14.00,2013-04-07 17:03:00,
2013-04-07 10:08:00,77.0,32.9,29.96,West,277,3.1,6.3,20,0.00,,---,0.00,VWS V14.00,2013-04-07 17:08:00,
2013-04-07 10:13:00,77.4,33.2,29.96,SSW,194,5.8,6.3,20,0.00,,---,0.00,VWS V14.00,2013-04-07 17:13:00,
2013-04-07 10:18:00,77.9,33.6,29.96,WSW,243,5.4,5.4,20,0.00,,---,0.00,VWS V14.00,2013-04-07 17:18:00,
2013-04-07 10:23:00,78.4,34.1,29.96,SW,234,5.4,6.3,20,0.00,,---,0.00,VWS V14.00,2013-04-07 17:23:00,
2013-04-07 10:28:00,78.6,34.2,29.96,WSW,239,4.0,7.6,20,0.00,,---,0.00,VWS V14.00,2013-04-07 17:28:00,
2013-04-07 10:33:00,78.8,34.4,29.96,SSW,193,4.9,6.3,20,0.00,,---,0.00,VWS V14.00,2013-04-07 17:33:00,
2013-04-07 10:38:00,79.3,34.8,29.96,SW,223,5.8,8.1,20,0.00,,---,0.00,VWS V14.00,2013-04-07 17:38:00,
2013-04-07 10:43:00,79.3,34.8,29.96,WSW,257,2.7,8.1,20,0.00,,---,0.00,VWS V14.00,2013-04-07 17:43:00,
2013-04-07 10:48:00,79.5,35.0,29.96,SSW,203,4.9,6.7,20,0.00,,---,0.00,VWS V14.00,2013-04-07 17:48:00,
2013-04-07 10:53:00,79.5,30.9,29.96,SW,226,4.0,6.7,17,0.00,,---,0.00,VWS V14.00,2013-04-07 17:53:00,
2013-04-07 10:58:00,79.9,31.2,29.96,WSW,246,8.1,8.1,17,0.00,,---,0.00,VWS V14.00,2013-04-07 17:58:00,
2013-04-07 11:03:00,80.1,31.4,29.96,WSW,244,2.7,8.1,17,0.00,,---,0.00,VWS V14.00,2013-04-07 18:03:00,
2013-04-07 11:08:00,80.4,31.7,29.96,SW,219,4.0,8.1,17,0.00,,---,0.00,VWS V14.00,2013-04-07 18:08:00,
2013-04-07 11:13:00,80.8,32.0,29.96,South,186,6.3,8.1,17,0.00,,---,0.00,VWS V14.00,2013-04-07 18:13:00,
2013-04-07 11:19:00,80.8,32.0,29.96,WSW,239,0.0,6.3,17,0.00,,---,0.00,VWS V14.00,2013-04-07 18:19:00,
2013-04-07 11:24:00,80.8,32.0,29.93,SSW,198,3.6,6.3,17,0.00,,---,0.00,VWS V14.00,2013-04-07 18:24:00,
2013-04-07 11:29:00,81.0,32.1,29.93,SSW,197,3.1,5.4,17,0.00,,---,0.00,VWS V14.00,2013-04-07 18:29:00,
2013-04-07 11:34:00,81.0,27.3,29.93,WSW,258,3.1,6.3,14,0.00,,---,0.00,VWS V14.00,2013-04-07 18:34:00,
2013-04-07 11:39:00,81.3,27.6,29.93,South,182,5.4,6.3,14,0.00,,---,0.00,VWS V14.00,2013-04-07 18:39:00,
2013-04-07 11:44:00,81.5,27.8,29.93,SSE,148,2.7,5.4,14,0.00,,---,0.00,VWS V14.00,2013-04-07 18:44:00,
2013-04-07 11:49:00,81.9,28.0,29.93,SE,127,2.7,5.8,14,0.00,,---,0.00,VWS V14.00,2013-04-07 18:49:00,
2013-04-07 11:54:00,82.0,28.2,29.93,SSW,197,0.0,5.8,14,0.00,,---,0.00,VWS V14.00,2013-04-07 18:54:00,
2013-04-07 11:59:00,82.4,28.5,29.93,WNW,282,3.1,5.8,14,0.00,,---,0.00,VWS V14.00,2013-04-07 18:59:00,
2013-04-07 12:04:00,82.4,28.5,29.93,NNW,328,6.3,7.2,14,0.00,,---,0.00,VWS V14.00,2013-04-07 19:04:00,
2013-04-07 12:10:00,82.4,28.5,29.93,NW,325,2.2,7.2,14,0.00,,---,0.00,VWS V14.00,2013-04-07 19:10:00,
2013-04-07 12:15:00,82.9,28.9,29.93,NW,324,0.0,3.6,14,0.00,,---,0.00,VWS V14.00,2013-04-07 19:15:00,
2013-04-07 12:20:00,83.1,29.0,29.93,NNW,332,0.0,4.9,14,0.00,,---,0.00,VWS V14.00,2013-04-07 19:20:00,
2013-04-07 12:25:00,83.8,29.6,29.90,SSW,209,0.0,4.9,14,0.00,,---,0.00,VWS V14.00,2013-04-07 19:25:00,
2013-04-07 12:30:00,84.4,28.2,29.90,SW,223,6.3,6.3,13,0.00,,---,0.00,VWS V14.00,2013-04-07 19:30:00,
2013-04-07 12:35:00,84.7,28.5,29.90,SW,226,4.9,6.3,13,0.00,,---,0.00,VWS V14.00,2013-04-07 19:35:00,
2013-04-07 12:40:00,84.9,28.6,29.90,SW,225,3.6,8.7,13,0.00,,---,0.00,VWS V14.00,2013-04-07 19:40:00,
2013-04-07 12:45:00,84.9,28.6,29.90,North,1,2.7,6.3,13,0.00,,---,0.00,VWS V14.00,2013-04-07 19:45:00,
2013-04-07 12:51:00,84.7,28.5,29.90,NNW,344,5.8,6.3,13,0.00,,---,0.00,VWS V14.00,2013-04-07 19:51:00,
2013-04-07 12:56:00,84.9,28.6,29.90,West,260,2.2,6.3,13,0.00,,---,0.00,VWS V14.00,2013-04-07 19:56:00,
2013-04-07 13:01:00,85.5,29.1,29.90,SSW,195,0.0,3.6,13,0.00,,---,0.00,VWS V14.00,2013-04-07 20:01:00,
2013-04-07 13:06:00,85.6,29.2,29.90,NNW,332,4.5,8.3,13,0.00,,---,0.00,VWS V14.00,2013-04-07 20:06:00,
2013-04-07 13:11:00,85.6,29.2,29.90,North,11,5.4,8.3,13,0.00,,---,0.00,VWS V14.00,2013-04-07 20:11:00,
2013-04-07 13:16:00,85.8,29.4,29.90,NNW,348,3.6,5.4,13,0.00,,---,0.00,VWS V14.00,2013-04-07 20:16:00,
2013-04-07 13:21:00,86.2,29.6,29.90,SW,227,2.2,5.4,13,0.00,,---,0.00,VWS V14.00,2013-04-07 20:21:00,
2013-04-07 13:26:00,86.5,29.9,29.90,NE,53,4.0,5.4,13,0.00,,---,0.00,VWS V14.00,2013-04-07 20:26:00,
2013-04-07 13:31:00,86.5,29.9,29.90,North,357,5.4,8.1,13,0.00,,---,0.00,VWS V14.00,2013-04-07 20:31:00,
2013-04-07 13:36:00,86.7,30.0,29.87,West,267,8.1,8.1,13,0.00,,---,0.00,VWS V14.00,2013-04-07 20:36:00,
2013-04-07 13:41:00,87.1,30.3,29.87,NNW,329,5.4,8.7,13,0.00,,---,0.00,VWS V14.00,2013-04-07 20:41:00,
2013-04-07 13:47:00,86.9,30.2,29.87,West,272,6.3,7.6,13,0.00,,---,0.00,VWS V14.00,2013-04-07 20:47:00,
2013-04-07 13:52:00,87.1,30.3,29.87,SW,216,5.4,8.3,13,0.00,,---,0.00,VWS V14.00,2013-04-07 20:52:00,
2013-04-07 13:57:00,87.4,30.6,29.87,NW,304,0.0,8.3,13,0.00,,---,0.00,VWS V14.00,2013-04-07 20:57:00,
2013-04-07 14:02:00,87.8,30.9,29.87,WNW,293,5.8,8.7,13,0.00,,---,0.00,VWS V14.00,2013-04-07 21:02:00,
2013-04-07 14:07:00,87.8,30.9,29.87,NW,321,2.2,8.7,13,0.00,,---,0.00,VWS V14.00,2013-04-07 21:07:00,
2013-04-07 14:13:00,87.4,30.6,29.87,South,173,2.7,8.7,13,0.00,,---,0.00,VWS V14.00,2013-04-07 21:13:00,
2013-04-07 14:18:00,87.4,30.6,29.87,SSE,158,0.0,3.1,13,0.00,,---,0.00,VWS V14.00,2013-04-07 21:18:00,
2013-04-07 14:23:00,87.4,30.6,29.87,ENE,67,0.0,8.3,13,0.00,,---,0.00,VWS V14.00,2013-04-07 21:23:00,
2013-04-07 14:28:00,87.6,30.8,29.87,SSW,205,4.0,8.3,13,0.00,,---,0.00,VWS V14.00,2013-04-07 21:28:00,
2013-04-07 14:33:00,87.8,30.9,29.87,WNW,289,7.6,7.6,13,0.00,,---,0.00,VWS V14.00,2013-04-07 21:33:00,
2013-04-07 14:38:00,87.8,30.9,29.84,West,264,7.6,8.7,13,0.00,,---,0.00,VWS V14.00,2013-04-07 21:38:00,
2013-04-07 14:43:00,87.6,30.8,29.84,NW,313,5.8,8.7,13,0.00,,---,0.00,VWS V14.00,2013-04-07 21:43:00,
2013-04-07 14:48:00,87.6,30.8,29.84,West,276,4.0,6.3,13,0.00,,---,0.00,VWS V14.00,2013-04-07 21:48:00,
2013-04-07 14:53:00,87.6,30.8,29.84,North,349,6.3,8.1,13,0.00,,---,0.00,VWS V14.00,2013-04-07 21:53:00,
2013-04-07 14:58:00,87.6,30.8,29.84,West,270,4.0,8.1,13,0.00,,---,0.00,VWS V14.00,2013-04-07 21:58:00,
2013-04-07 15:03:00,87.4,30.6,29.84,NNE,32,8.1,8.7,13,0.00,,---,0.00,VWS V14.00,2013-04-07 22:03:00,
2013-04-07 15:08:00,87.6,30.8,29.84,NNE,15,5.4,10.5,13,0.00,,---,0.00,VWS V14.00,2013-04-07 22:08:00,
2013-04-07 15:13:00,87.6,30.8,29.84,NNW,341,2.7,4.0,13,0.00,,---,0.00,VWS V14.00,2013-04-07 22:13:00,
2013-04-07 15:18:00,87.8,30.9,29.84,NNW,341,6.3,6.3,13,0.00,,---,0.00,VWS V14.00,2013-04-07 22:18:00,
2013-04-07 15:23:00,87.8,30.9,29.84,South,182,2.7,8.7,13,0.00,,---,0.00,VWS V14.00,2013-04-07 22:23:00,
2013-04-07 15:28:00,87.6,30.8,29.84,WSW,254,3.6,3.6,13,0.00,,---,0.00,VWS V14.00,2013-04-07 22:28:00,
2013-04-07 15:34:00,88.0,31.0,29.84,WNW,289,8.1,9.2,13,0.00,,---,0.00,VWS V14.00,2013-04-07 22:34:00,
2013-04-07 15:39:00,87.6,30.8,29.84,NNW,343,4.9,9.2,13,0.00,,---,0.00,VWS V14.00,2013-04-07 22:39:00,
2013-04-07 15:44:00,87.8,30.9,29.84,NW,320,4.9,6.3,13,0.00,,---,0.00,VWS V14.00,2013-04-07 22:44:00,
2013-04-07 15:49:00,88.0,31.0,29.84,WNW,289,5.8,8.7,13,0.00,,---,0.00,VWS V14.00,2013-04-07 22:49:00,
2013-04-07 15:54:00,87.8,30.9,29.84,NW,322,5.8,8.7,13,0.00,,---,0.00,VWS V14.00,2013-04-07 22:54:00,
2013-04-07 15:59:00,87.8,30.9,29.84,West,270,5.8,6.7,13,0.00,,---,0.00,VWS V14.00,2013-04-07 22:59:00,
2013-04-07 16:04:00,88.2,31.2,29.84,NW,311,2.2,11.0,13,0.00,,---,0.00,VWS V14.00,2013-04-07 23:04:00,
2013-04-07 16:09:00,88.0,31.0,29.81,WNW,295,6.3,11.0,13,0.00,,---,0.00,VWS V14.00,2013-04-07 23:09:00,
2013-04-07 16:15:00,87.8,30.9,29.81,West,267,2.7,5.8,13,0.00,,---,0.00,VWS V14.00,2013-04-07 23:15:00,
2013-04-07 16:20:00,88.2,31.2,29.81,West,276,3.1,6.7,13,0.00,,---,0.00,VWS V14.00,2013-04-07 23:20:00,
2013-04-07 16:25:00,88.0,31.0,29.81,NW,312,6.3,7.6,13,0.00,,---,0.00,VWS V14.00,2013-04-07 23:25:00,
2013-04-07 16:30:00,87.8,30.9,29.81,West,279,5.8,6.3,13,0.00,,---,0.00,VWS V14.00,2013-04-07 23:30:00,
2013-04-07 16:35:00,87.8,30.9,29.81,NNE,15,6.3,8.1,13,0.00,,---,0.00,VWS V14.00,2013-04-07 23:35:00,
2013-04-07 16:40:00,87.4,30.6,29.81,NNW,333,4.0,10.5,13,0.00,,---,0.00,VWS V14.00,2013-04-07 23:40:00,
2013-04-07 16:45:00,87.3,30.5,29.81,NNW,343,6.3,9.6,13,0.00,,---,0.00,VWS V14.00,2013-04-07 23:45:00,
2013-04-07 16:50:00,87.3,30.5,29.81,NE,37,3.1,9.6,13,0.00,,---,0.00,VWS V14.00,2013-04-07 23:50:00,
2013-04-07 16:55:00,87.4,30.6,29.81,NNW,346,4.9,9.6,13,0.00,,---,0.00,VWS V14.00,2013-04-07 23:55:00,
2013-04-07 17:00:00,87.8,30.9,29.81,North,6,4.0,5.8,13,0.00,,---,0.00,VWS V14.00,2013-04-08 00:00:00,
2013-04-07 17:05:00,87.8,30.9,29.81,North,357,3.6,8.1,13,0.00,,---,0.00,VWS V14.00,2013-04-08 00:05:00,
2013-04-07 17:10:00,88.0,31.0,29.81,North,357,5.8,8.1,13,0.00,,---,0.00,VWS V14.00,2013-04-08 00:10:00,
2013-04-07 17:15:00,87.8,30.9,29.81,NNW,327,3.1,8.1,13,0.00,,---,0.00,VWS V14.00,2013-04-08 00:15:00,
2013-04-07 17:20:00,87.4,30.6,29.81,North,3,4.9,11.0,13,0.00,,---,0.00,VWS V14.00,2013-04-08 00:20:00,
2013-04-07 17:25:00,87.1,30.3,29.81,NNW,332,6.3,11.0,13,0.00,,---,0.00,VWS V14.00,2013-04-08 00:25:00,
2013-04-07 17:30:00,87.1,30.3,29.81,North,0,2.7,3.6,13,0.00,,---,0.00,VWS V14.00,2013-04-08 00:30:00,
2013-04-07 17:35:00,86.9,30.2,29.81,North,357,3.6,7.6,13,0.00,,---,0.00,VWS V14.00,2013-04-08 00:35:00,
2013-04-07 17:41:00,86.7,30.0,29.81,North,4,5.8,10.5,13,0.00,,---,0.00,VWS V14.00,2013-04-08 00:41:00,
2013-04-07 17:46:00,85.8,29.4,29.81,North,357,8.1,10.5,13,0.00,,---,0.00,VWS V14.00,2013-04-08 00:46:00,
2013-04-07 17:51:00,85.3,28.9,29.81,North,6,5.4,10.5,13,0.00,,---,0.00,VWS V14.00,2013-04-08 00:51:00,
2013-04-07 17:56:00,84.6,28.4,29.81,North,0,4.0,10.5,13,0.00,,---,0.00,VWS V14.00,2013-04-08 00:56:00,
2013-04-07 18:01:00,84.0,29.8,29.81,NNW,348,4.0,6.3,14,0.00,,---,0.00,VWS V14.00,2013-04-08 01:01:00,
2013-04-07 18:06:00,83.7,29.5,29.81,North,357,6.3,10.5,14,0.00,,---,0.00,VWS V14.00,2013-04-08 01:06:00,
2013-04-07 18:11:00,83.5,29.3,29.81,NNW,331,3.1,10.5,14,0.00,,---,0.00,VWS V14.00,2013-04-08 01:11:00,
2013-04-07 18:17:00,82.9,28.9,29.81,NW,321,4.9,6.3,14,0.00,,---,0.00,VWS V14.00,2013-04-08 01:17:00,
2013-04-07 18:22:00,82.6,28.6,29.81,North,11,4.0,6.3,14,0.00,,---,0.00,VWS V14.00,2013-04-08 01:22:00,
2013-04-07 18:27:00,82.0,28.2,29.81,NW,315,7.6,7.6,14,0.00,,---,0.00,VWS V14.00,2013-04-08 01:27:00,
2013-04-07 18:32:00,81.7,27.9,29.81,West,271,4.0,5.8,14,0.00,,---,0.00,VWS V14.00,2013-04-08 01:32:00,
2013-04-07 18:37:00,81.3,27.6,29.81,North,353,6.3,6.3,14,0.00,,---,0.00,VWS V14.00,2013-04-08 01:37:00,
2013-04-07 18:42:00,81.1,23.8,29.81,NNW,329,3.6,6.3,12,0.00,,---,0.00,VWS V14.00,2013-04-08 01:42:00,
2013-04-07 18:47:00,80.8,23.5,29.81,NNW,329,7.6,8.7,12,0.00,,---,0.00,VWS V14.00,2013-04-08 01:47:00,
2013-04-07 18:52:00,80.4,23.2,29.81,NNW,330,5.8,8.7,12,0.00,,---,0.00,VWS V14.00,2013-04-08 01:52:00,
2013-04-07 18:57:00,80.2,28.4,29.81,NNW,327,2.2,8.7,15,0.00,,---,0.00,VWS V14.00,2013-04-08 01:57:00,
2013-04-07 19:02:00,79.9,28.1,29.81,NNW,342,2.7,5.4,15,0.00,,---,0.00,VWS V14.00,2013-04-08 02:02:00,
2013-04-07 19:07:00,79.5,27.9,29.81,NNW,335,5.8,5.8,15,0.00,,---,0.00,VWS V14.00,2013-04-08 02:07:00,
2013-04-07 19:12:00,79.3,27.7,29.81,NNW,332,0.0,5.8,15,0.00,,---,0.00,VWS V14.00,2013-04-08 02:12:00,
2013-04-07 19:17:00,79.0,27.4,29.81,NNW,332,2.7,4.0,15,0.00,,---,0.00,VWS V14.00,2013-04-08 02:17:00,
2013-04-07 19:23:00,78.6,27.1,29.81,NNW,331,0.0,4.9,15,0.00,,---,0.00,VWS V14.00,2013-04-08 02:23:00,
2013-04-07 19:28:00,78.3,26.9,29.81,NNW,331,0.0,4.9,15,0.00,,---,0.00,VWS V14.00,2013-04-08 02:28:00,
2013-04-07 19:33:00,77.7,26.4,29.81,NNW,331,0.0,0.0,15,0.00,,---,0.00,VWS V14.00,2013-04-08 02:33:00,
2013-04-07 19:38:00,77.0,25.9,29.81,NNW,331,0.0,0.0,15,0.00,,---,0.00,VWS V14.00,2013-04-08 02:38:00,
2013-04-07 19:43:00,76.5,25.4,29.81,NNW,331,0.0,0.0,15,0.00,,---,0.00,VWS V14.00,2013-04-08 02:43:00,
2013-04-07 19:48:00,75.7,24.9,29.81,NNW,332,0.0,0.0,15,0.00,,---,0.00,VWS V14.00,2013-04-08 02:48:00,
2013-04-07 19:53:00,75.4,24.6,29.81,NNW,332,0.0,0.0,15,0.00,,---,0.00,VWS V14.00,2013-04-08 02:53:00,
2013-04-07 19:59:00,74.7,25.5,29.81,NNW,331,0.0,0.0,16,0.00,,---,0.00,VWS V14.00,2013-04-08 02:59:00,
2013-04-07 20:04:00,73.9,25.0,29.81,NNW,332,0.0,0.0,16,0.00,,---,0.00,VWS V14.00,2013-04-08 03:04:00,
2013-04-07 20:09:00,73.6,24.7,29.81,NNW,331,0.0,0.0,16,0.00,,---,0.00,VWS V14.00,2013-04-08 03:09:00,
2013-04-07 20:14:00,73.0,24.2,29.81,NNW,331,0.0,0.0,16,0.00,,---,0.00,VWS V14.00,2013-04-08 03:14:00,
2013-04-07 20:20:00,72.5,23.8,29.81,NNW,332,0.0,0.0,16,0.00,,---,0.00,VWS V14.00,2013-04-08 03:20:00,
2013-04-07 20:25:00,72.0,23.4,29.81,NNW,332,0.0,0.0,16,0.00,,---,0.00,VWS V14.00,2013-04-08 03:25:00,
2013-04-07 20:30:00,71.6,23.1,29.81,NNW,331,0.0,0.0,16,0.00,,---,0.00,VWS V14.00,2013-04-08 03:30:00,
2013-04-07 20:35:00,71.1,24.1,29.81,NNW,332,0.0,0.0,17,0.00,,---,0.00,VWS V14.00,2013-04-08 03:35:00,
2013-04-07 20:40:00,70.7,23.8,29.81,NNW,331,0.0,0.0,17,0.00,,---,0.00,VWS V14.00,2013-04-08 03:40:00,
2013-04-07 20:46:00,70.2,23.4,29.81,NNW,331,0.0,0.0,17,0.00,,---,0.00,VWS V14.00,2013-04-08 03:46:00,
2013-04-07 20:51:00,69.8,23.1,29.81,NNW,331,0.0,0.0,17,0.00,,---,0.00,VWS V14.00,2013-04-08 03:51:00,
2013-04-07 20:57:00,69.3,22.6,29.81,NNW,331,0.0,0.0,17,0.00,,---,0.00,VWS V14.00,2013-04-08 03:57:00,
2013-04-07 21:00:00,69.1,22.5,29.81,NNW,331,0.0,0.0,17,0.00,,---,0.00,VWS V14.00,2013-04-08 04:00:00,
2013-04-07 21:05:00,68.9,22.3,29.81,NNW,331,0.0,0.0,17,0.00,,---,0.00,VWS V14.00,2013-04-08 04:05:00,
2013-04-07 21:10:00,68.5,22.0,29.81,NNW,331,0.0,0.0,17,0.00,,---,0.00,VWS V14.00,2013-04-08 04:10:00,
2013-04-07 21:15:00,68.0,21.6,29.81,NNW,331,0.0,0.0,17,0.00,,---,0.00,VWS V14.00,2013-04-08 04:15:00,
2013-04-07 21:20:00,67.8,21.5,29.81,NNW,332,0.0,0.0,17,0.00,,---,0.00,VWS V14.00,2013-04-08 04:20:00,
2013-04-07 21:25:00,67.5,21.2,29.81,NNW,331,0.0,0.0,17,0.00,,---,0.00,VWS V14.00,2013-04-08 04:25:00,
2013-04-07 21:30:00,67.3,21.0,29.81,NNW,332,0.0,0.0,17,0.00,,---,0.00,VWS V14.00,2013-04-08 04:30:00,
2013-04-07 21:35:00,66.9,20.7,29.81,NNW,331,0.0,0.0,17,0.00,,---,0.00,VWS V14.00,2013-04-08 04:35:00,
2013-04-07 21:40:00,66.7,20.6,29.81,NNW,331,3.6,4.0,17,0.00,,---,0.00,VWS V14.00,2013-04-08 04:40:00,
2013-04-07 21:45:00,67.1,24.7,29.81,NW,318,5.8,5.8,20,0.00,,---,0.00,VWS V14.00,2013-04-08 04:45:00,
2013-04-07 21:50:00,68.0,25.5,29.81,NW,326,3.6,5.8,20,0.00,,---,0.00,VWS V14.00,2013-04-08 04:50:00,
2013-04-07 21:55:00,68.7,26.1,29.84,WNW,286,3.1,6.3,20,0.00,,---,0.00,VWS V14.00,2013-04-08 04:55:00,
2013-04-07 22:00:00,69.4,26.7,29.84,NW,310,4.0,4.0,20,0.00,,---,0.00,VWS V14.00,2013-04-08 05:00:00,
2013-04-07 22:05:00,70.0,29.4,29.84,NW,323,3.6,5.8,22,0.00,,---,0.00,VWS V14.00,2013-04-08 05:05:00,
2013-04-07 22:10:00,70.2,29.6,29.81,North,353,0.0,6.3,22,0.00,,---,0.00,VWS V14.00,2013-04-08 05:10:00,
2013-04-07 22:15:00,70.2,29.6,29.81,NNW,342,2.7,3.1,22,0.00,,---,0.00,VWS V14.00,2013-04-08 05:15:00,
2013-04-07 22:20:00,70.2,29.6,29.81,NNE,16,2.7,4.0,22,0.00,,---,0.00,VWS V14.00,2013-04-08 05:20:00,
2013-04-07 22:25:00,70.2,29.6,29.81,North,353,0.0,5.4,22,0.00,,---,0.00,VWS V14.00,2013-04-08 05:25:00,
2013-04-07 22:30:00,70.2,29.6,29.81,North,357,4.9,4.9,22,0.00,,---,0.00,VWS V14.00,2013-04-08 05:30:00,
2013-04-07 22:35:00,70.2,29.6,29.81,North,353,2.7,5.8,22,0.00,,---,0.00,VWS V14.00,2013-04-08 05:35:00,
2013-04-07 22:40:00,70.2,29.6,29.81,North,353,0.0,5.8,22,0.00,,---,0.00,VWS V14.00,2013-04-08 05:40:00,
2013-04-07 22:45:00,70.2,29.6,29.81,North,353,0.0,0.0,22,0.00,,---,0.00,VWS V14.00,2013-04-08 05:45:00,
2013-04-07 22:50:00,69.8,29.3,29.81,North,353,0.0,0.0,22,0.00,,---,0.00,VWS V14.00,2013-04-08 05:50:00,
2013-04-07 22:56:00,69.4,29.0,29.81,North,353,0.0,0.0,22,0.00,,---,0.00,VWS V14.00,2013-04-08 05:56:00,
2013-04-07 23:01:00,69.3,28.8,29.81,North,353,0.0,0.0,22,0.00,,---,0.00,VWS V14.00,2013-04-08 06:01:00,
2013-04-07 23:06:00,68.9,28.5,29.81,North,353,0.0,0.0,22,0.00,,---,0.00,VWS V14.00,2013-04-08 06:06:00,
2013-04-07 23:11:00,68.7,28.4,29.81,North,353,0.0,3.1,22,0.00,,---,0.00,VWS V14.00,2013-04-08 06:11:00,
2013-04-07 23:16:00,68.4,28.1,29.81,North,353,0.0,0.0,22,0.00,,---,0.00,VWS V14.00,2013-04-08 06:16:00,
2013-04-07 23:22:00,68.0,27.8,29.81,North,353,0.0,2.2,22,0.00,,---,0.00,VWS V14.00,2013-04-08 06:22:00,
2013-04-07 23:27:00,67.6,28.5,29.81,North,353,0.0,3.6,23,0.00,,---,0.00,VWS V14.00,2013-04-08 06:27:00,
2013-04-07 23:32:00,67.5,28.4,29.81,North,353,0.0,0.0,23,0.00,,---,0.00,VWS V14.00,2013-04-08 06:32:00,
2013-04-07 23:37:00,67.3,28.2,29.81,North,353,0.0,0.0,23,0.00,,---,0.00,VWS V14.00,2013-04-08 06:37:00,
2013-04-07 23:42:00,67.1,28.1,29.81,North,353,0.0,0.0,23,0.00,,---,0.00,VWS V14.00,2013-04-08 06:42:00,
2013-04-07 23:47:00,66.7,27.8,29.81,North,353,0.0,0.0,23,0.00,,---,0.00,VWS V14.00,2013-04-08 06:47:00,
2013-04-07 23:52:00,66.4,27.5,29.81,North,353,0.0,0.0,23,0.00,,---,0.00,VWS V14.00,2013-04-08 06:52:00,
2013-04-07 23:57:00,66.0,27.2,29.81,North,353,0.0,0.0,23,0.00,,---,0.00,VWS V14.00,2013-04-08 06:57:00,